[[{"header":{"parameterUnit":"m.s-1","parameterCategory":1,"la1":30.2991,"la2":30.254,"lo1":-89.0895,"lo2":-89.0444,"dy":0.0017,"dx":0.0017,"nx":28,"ny":28,"refTime":"2023-10-10T03:00:00:Z","depth":0,"parameterNumber":2,"parameterNumberName":"U-component_of_WINDS"},"data":[0,0,0,0,0,0,0,0,0,0,0,0,0,0,0,0,0,0,0,0,0,0,0,0,0,0,0,0,0,0,0,0,0,0,0,0,0,0,0,0,0,0,0,0,0,0,0,0,0,0,0,0,0,0,0,0,0,0,-8.8069,-8.8073,0,-8.8402,-8.8406,-8.841,-8.8308,-8.8301,-8.8294,-8.8287,-8.8641,-8.8657,-8.8673,0,0,0,0,0,0,0,0,0,0,0,0,0,-8.7358,-8.7372,-8.8069,-8.8073,-8.8077,-8.8402,-8.8406,-8.8411,-8.8309,-8.8301,-8.8292,-8.8284,-8.8636,-8.8655,-8.8674,0,0,0,0,0,0,0,0,0,0,0,0,0,-8.7677,-8.7376,-8.8068,-8.8065,-8.8068,-8.8401,-8.8407,-8.8412,-8.8311,-8.83,-8.829,-8.828,-8.863,-8.8653,-8.8677,-8.9036,0,0,-8.875,-8.876,0,0,0,0,0,0,0,0,-8.7659,-8.7703,-8.8062,-8.8066,-8.807,-8.8302,-8.8285,-8.8622,-8.8314,-8.8219,-8.8287,-8.8275,-8.8538,-8.8569,-8.8655,-8.9053,-8.9068,-8.8752,-8.8767,-8.8777,-8.8784,0,0,0,0,0,0,0,-8.7637,-8.7688,-8.8201,-8.8067,-8.8072,-8.8052,-8.8085,-8.8349,-8.8434,-8.8227,-8.822,-8.826,-8.8538,-8.8632,-8.8663,-8.9073,-8.8751,-8.8773,-8.8788,-8.8797,-8.9788,-8.9799,0,0,0,0,0,0,-8.761,-8.7671,-8.8191,-8.8211,-8.7834,-8.8073,-8.8111,-8.8239,-8.8431,-8.845,-8.8269,-8.8254,-8.8596,-8.8635,-8.8675,-8.9111,-8.8777,-8.8799,-8.8813,-8.9776,-8.9791,-8.9804,0,0,0,0,0,0,-8.7595,-8.7658,-8.8177,-8.7939,-8.8004,-8.8097,-8.8241,-8.8251,-8.8344,-8.8463,-8.8479,-8.8348,-8.8589,-8.8641,-8.8947,-8.9122,-8.881,-8.8832,-8.9762,-8.9781,-8.9797,-8.9985,0,0,0,0,0,0,-8.7575,-8.7653,-8.7787,-8.7943,-8.8017,-8.8441,-8.8252,-8.8265,-8.8384,-8.8368,-8.8541,-8.856,-8.8585,-8.8912,-8.8971,-8.9149,-8.8851,-8.9747,-8.977,-8.9791,-8.9964,-9.0007,-9.0045,0,0,0,0,0,-8.755,-8.7829,-8.7794,-8.7858,-8.8186,-8.8451,-8.8494,-8.8513,-8.8399,-8.8537,-8.8614,-8.8554,-8.9093,-8.8944,-8.901,-8.9198,-8.9736,-8.9764,-8.979,-8.9946,-8.9999,-9.0044,0,0,0,0,0,0,-8.7695,-8.7849,-8.7813,-8.8149,-8.8287,-8.8433,-8.8607,-8.8568,-8.8745,-8.8723,-8.8744,-8.8784,-8.9099,-8.9179,-8.9011,-8.9558,-8.9398,-8.944,-8.9495,-8.9546,-8.9585,-8.9561,-8.8871,0,0,0,0,0,-8.7765,-8.7963,-8.8089,-8.8374,-8.8444,-8.8515,-8.8631,-8.8633,-8.8779,-8.8839,-8.8937,-8.9085,-8.9288,-8.9421,-8.9613,-8.9974,-9.0014,-9.0137,-9.0177,-9.0209,-9.0246,-9.0447,-9.0505,-8.9892,-8.9891,-8.9891,0,0,-8.7914,-8.8023,-8.8147,-8.8406,-8.8513,-8.8722,-8.8564,-8.8792,-8.8949,-8.8874,-8.9169,-8.9248,-8.9414,-8.975,-8.9903,-8.9827,-9.0424,-9.0244,-9.0269,-9.0288,-9.0481,-9.0539,-9.059,-8.991,-8.9907,-8.9904,0,0,-8.8292,-8.8392,-8.8642,-8.8752,-8.8916,-8.8961,-8.9021,-8.9174,-8.9222,-8.9517,-8.9467,-8.9656,-9.0003,-9.0125,-9.0232,-9.0659,-9.0613,-9.0722,-9.0934,-9.113,-9.1178,-9.1221,-9.1377,-9.1432,-9.0757,-9.0758,-9.0758,0,-8.8457,-8.8766,-8.8776,-8.9009,-8.9126,-8.9064,-8.932,-8.9429,-8.9649,-8.9734,-8.9643,-9.008,-9.0187,-9.0553,-9.0657,-9.0745,-9.0819,-9.0703,-9.1169,-9.1212,-9.1253,-9.1402,-9.146,-9.077,-9.0769,-9.0767,-9.0766,0,-8.8963,-8.9179,-8.9361,-8.9572,-8.971,-8.9953,-9.0004,-9.0144,-9.0136,-9.0192,-9.0496,-9.0623,-9.0842,-9.0929,-9.0924,-9.1296,-9.1244,-9.1162,-9.1002,-9.1323,-9.1464,-9.1521,-9.0788,-9.0783,-9.078,-9.0776,0,0,-8.9442,-8.9655,-8.9722,-8.9818,-8.9995,-9.0164,-9.0407,-9.0617,-9.0738,-9.0893,-9.11,-9.1396,-9.1322,-9.1444,-9.1453,-9.1625,-9.196,-9.1522,-9.1527,-9.1602,-9.2382,-9.2445,-9.251,-9.1929,-9.194,-9.1949,-9.237,0,-8.9837,-9.0258,-9.0276,-9.0663,-9.0864,-9.081,-9.1022,-9.1157,-9.1216,-9.14,-9.1467,-9.1678,-9.1562,-9.1636,-9.1803,-9.1883,-9.2117,-9.1853,-9.2128,-9.2137,-9.209,-9.2583,-9.265,-9.3041,-9.2424,-9.2434,-9.244,0,-9.0354,-9.0522,-9.0927,-9.1077,-9.1163,-9.1352,-9.1548,-9.1723,-9.1876,-9.1908,-9.2045,-9.203,-9.2284,-9.2114,-9.2467,-9.2287,-9.2401,-9.2458,-9.2473,-9.2502,-9.231,-9.2629,-9.3165,-9.3225,-9.2526,-9.2519,-9.2513,0,-9.0667,-9.0994,-9.128,-9.1363,-9.1545,-9.168,-9.1763,-9.1905,-9.2032,-9.2205,-9.2288,-9.2489,-9.2601,-9.276,-9.2802,-9.2673,-9.3157,-9.2989,-9.3195,-9.3195,-9.3301,-9.3294,-9.3867,-9.337,-9.3369,-9.3368,-9.3367,0,-9.1108,-9.1359,-9.1423,-9.1599,-9.1881,-9.19,-9.218,-9.2254,-9.2382,-9.2575,-9.2542,-9.2725,-9.2768,-9.2962,-9.2996,-9.3286,-9.3337,-9.3373,-9.338,-9.3378,-9.3374,-9.3455,-9.343,-9.3384,-9.338,-9.3377,-9.3374,0,-9.1505,-9.1557,-9.1866,-9.2012,-9.2055,-9.2256,-9.2384,-9.2556,-9.261,-9.2856,-9.2916,-9.3005,-9.3231,-9.3287,-9.3559,-9.3582,-9.3926,-9.3906,-9.3873,-9.3873,-9.4077,-9.4059,-9.4724,-9.4814,-9.4256,-9.4261,-9.4265,0,-9.1784,-9.1976,-9.2142,-9.2267,-9.2355,-9.2558,-9.2686,-9.2714,-9.285,-9.304,-9.3191,-9.3412,-9.359,-9.3956,-9.4048,-9.4257,-9.4243,-9.4462,-9.4275,-9.4268,-9.4251,-9.424,-9.4262,-9.4499,-9.4505,-9.451,-9.4514,0,-9.2276,-9.2292,-9.2475,-9.267,-9.2823,-9.2978,-9.3127,-9.3233,-9.3282,-9.3438,-9.3666,-9.3805,-9.4081,-9.4303,-9.4514,-9.4604,-9.4572,-9.4571,-9.4631,-9.4632,-9.4607,-9.4627,-9.3974,-9.4557,-9.4552,-9.4549,-9.4547,-9.4545,-9.2625,-9.2794,-9.2937,-9.3144,-9.3258,-9.3399,-9.3567,-9.3643,-9.3833,-9.4056,-9.4063,-9.4314,-9.4467,-9.4745,-9.4848,-9.5048,-9.4982,-9.5067,-9.509,-9.5111,-9.5131,-9.4572,-9.5086,-9.5085,-9.5084,-9.5083,-9.5082,0,-9.3117,-9.3207,-9.3396,-9.3604,-9.3768,-9.3716,-9.3879,-9.4021,-9.424,-9.4383,-9.4559,-9.4825,-9.5041,-9.515,-9.5366,-9.5506,-9.5496,-9.5562,-9.5554,-9.5576,-9.5175,-9.5104,-9.5566,-9.5566,-9.5566,-9.5566,-9.5566,-9.5566,-9.3393,-9.3676,-9.3711,-9.4053,-9.4142,-9.4383,-9.4481,-9.4613,-9.4727,-9.5023,-9.5201,-9.5269,-9.5401,-9.5626,-9.5824,-9.5851,-9.5934,-9.6009,-9.6029,-9.5653,-9.5604,-9.5557,-9.549,-9.6026,-9.6027,-9.6414,-9.6417,-9.642]},{"header":{"parameterUnit":"m.s-1","parameterCategory":1,"la1":30.2991,"la2":30.254,"lo1":-89.0895,"lo2":-89.0444,"dy":0.0017,"dx":0.0017,"nx":28,"ny":28,"refTime":"2023-10-10T03:00:00:Z","depth":0,"parameterNumber":3,"parameterNumberName":"V-component_of_WINDS"},"data":[0,0,0,0,0,0,0,0,0,0,0,0,0,0,0,0,0,0,0,0,0,0,0,0,0,0,0,0,0,0,0,0,0,0,0,0,0,0,0,0,0,0,0,0,0,0,0,0,0,0,0,0,0,0,0,0,0,0,-4.4475,-4.4474,0,-4.4455,-4.4455,-4.4455,-4.438,-4.4379,-4.4377,-4.4375,-4.4356,-4.4357,-4.4358,0,0,0,0,0,0,0,0,0,0,0,0,0,-4.4447,-4.4448,-4.4475,-4.4474,-4.4474,-4.4455,-4.4455,-4.4455,-4.4381,-4.4379,-4.4377,-4.4375,-4.4356,-4.4357,-4.4358,0,0,0,0,0,0,0,0,0,0,0,0,0,-4.4447,-4.4448,-4.4475,-4.4435,-4.4431,-4.4455,-4.4455,-4.4454,-4.4381,-4.4379,-4.4376,-4.4374,-4.4355,-4.4357,-4.4358,-4.4419,0,0,-4.4363,-4.4364,0,0,0,0,0,0,0,0,-4.4447,-4.4448,-4.4441,-4.4438,-4.4434,-4.4418,-4.4438,-4.4443,-4.4382,-4.44,-4.4375,-4.4372,-4.4379,-4.4378,-4.438,-4.4418,-4.4417,-4.4363,-4.4364,-4.4365,-4.4365,0,0,0,0,0,0,0,-4.4447,-4.4448,-4.4467,-4.4441,-4.4437,-4.4418,-4.4415,-4.4438,-4.4404,-4.4398,-4.4393,-4.4392,-4.4376,-4.4379,-4.4379,-4.4417,-4.4363,-4.4365,-4.4366,-4.4366,-4.4502,-4.4504,0,0,0,0,0,0,-4.4453,-4.4449,-4.4467,-4.4466,-4.4434,-4.442,-4.4417,-4.4425,-4.4403,-4.4398,-4.4394,-4.4388,-4.4377,-4.4377,-4.4378,-4.4446,-4.4365,-4.4366,-4.4367,-4.4499,-4.4502,-4.4505,0,0,0,0,0,0,-4.4452,-4.4455,-4.4468,-4.4456,-4.4456,-4.4424,-4.4433,-4.4426,-4.4429,-4.44,-4.4393,-4.4403,-4.4375,-4.4376,-4.4409,-4.4444,-4.4367,-4.4369,-4.4496,-4.45,-4.4504,-4.4584,0,0,0,0,0,0,-4.4452,-4.4455,-4.4478,-4.4457,-4.4457,-4.45,-4.4436,-4.4428,-4.4432,-4.4424,-4.4407,-4.4401,-4.4373,-4.4407,-4.441,-4.4445,-4.437,-4.4492,-4.4498,-4.4502,-4.4578,-4.459,-4.4601,0,0,0,0,0,-4.4451,-4.4502,-4.448,-4.4483,-4.4485,-4.4502,-4.4502,-4.4469,-4.4435,-4.4457,-4.4439,-4.4402,-4.444,-4.4411,-4.4414,-4.445,-4.449,-4.4496,-4.4502,-4.4573,-4.4588,-4.46,0,0,0,0,0,0,-4.453,-4.4499,-4.4474,-4.452,-4.4514,-4.449,-4.4517,-4.4486,-4.449,-4.4483,-4.4441,-4.4437,-4.4476,-4.4466,-4.4434,-4.4507,-4.4459,-4.4466,-4.4512,-4.4525,-4.4537,-4.4538,-4.4371,0,0,0,0,0,-4.4552,-4.4569,-4.4541,-4.4584,-4.4582,-4.4551,-4.4557,-4.4531,-4.4524,-4.4521,-4.4504,-4.4499,-4.4509,-4.4517,-4.4525,-4.4576,-4.4571,-4.4602,-4.4614,-4.4623,-4.4629,-4.4654,-4.4668,-4.4525,-4.4524,-4.4524,0,0,-4.4599,-4.4584,-4.4598,-4.4599,-4.4592,-4.4609,-4.4549,-4.457,-4.4583,-4.4524,-4.4554,-4.4542,-4.4532,-4.4574,-4.4592,-4.4567,-4.4668,-4.4631,-4.4639,-4.464,-4.4662,-4.4675,-4.4687,-4.4529,-4.4528,-4.4527,0,0,-4.4693,-4.4685,-4.4719,-4.4712,-4.4701,-4.4679,-4.4688,-4.4667,-4.4657,-4.4686,-4.4642,-4.4656,-4.4675,-4.4669,-4.4669,-4.4759,-4.4725,-4.4763,-4.4822,-4.4847,-4.4858,-4.4868,-4.4899,-4.4911,-4.477,-4.477,-4.477,0,-4.4753,-4.4778,-4.474,-4.4764,-4.4765,-4.4712,-4.4746,-4.4741,-4.4734,-4.4736,-4.4709,-4.473,-4.472,-4.4759,-4.4781,-4.4783,-4.4791,-4.4765,-4.486,-4.4869,-4.4878,-4.4906,-4.4918,-4.4775,-4.4774,-4.4774,-4.4773,0,-4.4851,-4.4868,-4.4897,-4.489,-4.4895,-4.4924,-4.489,-4.4899,-4.4873,-4.4854,-4.4883,-4.4869,-4.4873,-4.488,-4.4855,-4.4916,-4.49,-4.4867,-4.4818,-4.4896,-4.4923,-4.4934,-4.4781,-4.478,-4.4778,-4.4777,0,0,-4.4995,-4.4966,-4.4977,-4.4972,-4.4956,-4.4968,-4.4994,-4.4997,-4.5005,-4.5001,-4.5021,-4.5038,-4.5006,-4.5006,-4.4979,-4.5001,-4.5071,-4.4964,-4.4963,-4.4984,-4.5135,-4.516,-4.5174,-4.5049,-4.5051,-4.5052,-4.5136,0,-4.5084,-4.5125,-4.5092,-4.514,-4.5154,-4.5103,-4.5125,-4.5117,-4.51,-4.511,-4.509,-4.5102,-4.506,-4.5059,-4.5079,-4.5059,-4.5101,-4.5053,-4.5066,-4.5067,-4.5069,-4.5188,-4.5214,-4.5293,-4.5146,-4.5148,-4.5149,0,-4.5193,-4.5193,-4.5242,-4.522,-4.5225,-4.5246,-4.5244,-4.5255,-4.5244,-4.5229,-4.5229,-4.5196,-4.5219,-4.5171,-4.5201,-4.5169,-4.5172,-4.5163,-4.5165,-4.5165,-4.5112,-4.5189,-4.5318,-4.5329,-4.5165,-4.5164,-4.5163,0,-4.5291,-4.5304,-4.5334,-4.5332,-4.5308,-4.5323,-4.5314,-4.53,-4.5304,-4.5303,-4.5304,-4.5306,-4.5307,-4.5309,-4.5278,-4.5246,-4.5312,-4.5262,-4.53,-4.53,-4.5315,-4.5315,-4.5445,-4.5319,-4.5319,-4.5319,-4.5319,0,-4.5393,-4.5425,-4.5378,-4.5397,-4.543,-4.5391,-4.5425,-4.541,-4.5398,-4.5413,-4.537,-4.5384,-4.5342,-4.5352,-4.5327,-4.5355,-4.5356,-4.5344,-4.5337,-4.5348,-4.5349,-4.5349,-4.5342,-4.5322,-4.5321,-4.5321,-4.532,0,-4.5509,-4.5479,-4.5508,-4.5482,-4.5476,-4.5502,-4.548,-4.5496,-4.5475,-4.5494,-4.5496,-4.5463,-4.5472,-4.5441,-4.5445,-4.5428,-4.5469,-4.5454,-4.5473,-4.5468,-4.5507,-4.5503,-4.5641,-4.5657,-4.5522,-4.5523,-4.5525,0,-4.5576,-4.5599,-4.5575,-4.5581,-4.5574,-4.5585,-4.5587,-4.5549,-4.5553,-4.5542,-4.5559,-4.5564,-4.5566,-4.5583,-4.556,-4.5563,-4.5546,-4.5594,-4.5546,-4.5555,-4.5545,-4.5544,-4.5545,-4.5604,-4.5606,-4.5607,-4.5608,0,-4.5697,-4.5681,-4.5686,-4.5686,-4.569,-4.5688,-4.5683,-4.569,-4.5649,-4.5656,-4.5664,-4.5666,-4.5669,-4.5675,-4.5672,-4.5662,-4.5628,-4.5623,-4.5632,-4.5643,-4.5652,-4.5646,-4.5499,-4.562,-4.5619,-4.5618,-4.5618,-4.5617,-4.579,-4.5807,-4.5792,-4.5799,-4.5791,-4.5787,-4.58,-4.578,-4.5786,-4.5785,-4.5762,-4.5775,-4.5762,-4.5755,-4.5748,-4.5757,-4.5734,-4.5748,-4.5751,-4.5754,-4.576,-4.5652,-4.5757,-4.5756,-4.5756,-4.5755,-4.5755,0,-4.5908,-4.5895,-4.5902,-4.5895,-4.59,-4.5867,-4.586,-4.5866,-4.5877,-4.5868,-4.5871,-4.5879,-4.5884,-4.5861,-4.5862,-4.5874,-4.5858,-4.5875,-4.5873,-4.5871,-4.5781,-4.5773,-4.5888,-4.5888,-4.5888,-4.5888,-4.5888,-4.5888,-4.597,-4.5996,-4.5978,-4.6,-4.5987,-4.5998,-4.5997,-4.5992,-4.5984,-4.5996,-4.5999,-4.5983,-4.5968,-4.5967,-4.597,-4.5963,-4.5965,-4.5987,-4.5975,-4.5891,-4.5878,-4.5866,-4.5858,-4.5988,-4.5989,-4.6064,-4.6065,-4.6065]}]]